Find FAISAT-2V

NORAD ID: 24954 Int'l Des: 1997-052 Owner: FACS Country: US operational
LEOCIRCULARPOLAR

Current View

Loading 3D Globe...

About FAISAT-2V

Description loading...

Upcoming Passes

Passes for default location (London). Set your location on the main map for personalized predictions.

Altitude History

Loading altitude history...

Two-Line Element Set

1 24954U 97052B 26151.07348024 .00000097 00000-0 77388-4 0 9993
2 24954 82.9230 356.9979 0039379 2.0008 109.1999 13.80370890444648
Epoch: May 31, 2026 • Age: 11 hours

Current Status

Altitude 949.0 km
Velocity 7.39 km/s
Sub-Earth Point -30.27°S, 95.42°W
Launch Date Sep 23, 1997
Age 28.6 years
Type other

Technical Details

Classification Payload
Mass 114.00 kg
Dry Mass 114.00 kg
Total Mass 114.00 kg
Length 1.10 m
Diameter 0.60 m
Span 6.00 m
Shape Oct Cyl + Ant
Manufacturer POL
Bus Type 21KF2
Phase Status Unknown Transfer Status
Owner/State FACS/US

Most Searched